Time,TemperatureF,DewpointF,PressureIn,WindDirection,WindDirectionDegrees,WindSpeedMPH,WindSpeedGustMPH,Humidity,HourlyPrecipIn,Conditions,Clouds,dailyrainin,SolarRadiationWatts/m^2,SoftwareType,DateUTC
2013-01-02 00:02:00,7.0,0.0,30.29,NNW,335,2.0,8.0,73,0.00,,,0.00,0.000000,,2013-01-02 07:02:00,
2013-01-02 00:32:00,8.0,1.0,30.27,NW,324,0.0,3.0,73,0.00,,,0.00,0.000000,,2013-01-02 07:32:00,
2013-01-02 00:42:00,8.0,1.0,30.27,NW,324,0.0,3.0,73,0.00,,,0.00,0.000000,,2013-01-02 07:42:00,
2013-01-02 00:52:00,8.0,1.0,30.27,NW,324,0.0,3.0,73,0.00,,,0.00,0.000000,,2013-01-02 07:52:00,
2013-01-02 01:02:00,8.0,1.0,30.27,NW,324,0.0,3.0,73,0.00,,,0.00,0.000000,,2013-01-02 08:02:00,
2013-01-02 01:11:00,8.0,1.0,30.27,NW,324,0.0,3.0,73,0.00,,,0.00,0.000000,,2013-01-02 08:11:00,
2013-01-02 01:12:00,8.0,1.0,30.27,NNW,344,0.0,5.0,73,0.00,,,0.00,0.000000,,2013-01-02 08:12:00,
2013-01-02 01:32:00,8.0,1.0,30.27,NNW,344,0.0,5.0,73,0.00,,,0.00,0.000000,,2013-01-02 08:32:00,
2013-01-02 01:42:00,8.0,1.0,30.27,NNW,344,0.0,5.0,73,0.00,,,0.00,0.000000,,2013-01-02 08:42:00,
2013-01-02 01:53:00,8.0,1.0,30.27,NNW,344,0.0,5.0,73,0.00,,,0.00,0.000000,,2013-01-02 08:53:00,
2013-01-02 02:02:00,8.0,1.0,30.27,NNW,344,0.0,5.0,73,0.00,,,0.00,0.000000,,2013-01-02 09:02:00,
2013-01-02 02:12:00,8.0,1.0,30.28,NNW,332,2.0,8.0,73,0.00,,,0.00,0.000000,,2013-01-02 09:12:00,
2013-01-02 02:32:00,8.0,1.0,30.28,NNW,332,2.0,8.0,73,0.00,,,0.00,0.000000,,2013-01-02 09:32:00,
2013-01-02 02:43:00,8.0,1.0,30.28,NNW,332,2.0,8.0,73,0.00,,,0.00,0.000000,,2013-01-02 09:43:00,
2013-01-02 02:52:00,8.0,1.0,30.28,NNW,332,2.0,8.0,73,0.00,,,0.00,0.000000,,2013-01-02 09:52:00,
2013-01-02 03:02:00,8.0,1.0,30.28,NNW,332,2.0,8.0,73,0.00,,,0.00,0.000000,,2013-01-02 10:02:00,
2013-01-02 03:32:00,8.0,1.0,30.28,NNW,337,2.0,7.0,73,0.00,,,-99.99,0.000000,,2013-01-02 10:32:00,
2013-01-02 03:42:00,8.0,1.0,30.28,NNW,337,2.0,7.0,73,0.00,,,-99.99,0.000000,,2013-01-02 10:42:00,
2013-01-02 03:52:00,8.0,1.0,30.28,NNW,337,2.0,7.0,73,0.00,,,-99.99,0.000000,,2013-01-02 10:52:00,
2013-01-02 04:02:00,8.0,1.0,30.28,NNW,337,2.0,7.0,73,0.00,,,-99.99,0.000000,,2013-01-02 11:02:00,
2013-01-02 04:11:00,8.0,1.0,30.28,NNW,337,2.0,7.0,73,0.00,,,-99.99,0.000000,,2013-01-02 11:11:00,
2013-01-02 04:12:00,8.0,1.0,30.27,NNW,339,4.0,7.0,72,0.00,,,0.00,0.000000,,2013-01-02 11:12:00,
2013-01-02 04:33:00,8.0,1.0,30.27,NNW,339,4.0,7.0,72,0.00,,,0.00,0.000000,,2013-01-02 11:33:00,
2013-01-02 04:43:00,8.0,1.0,30.27,NNW,339,4.0,7.0,72,0.00,,,0.00,0.000000,,2013-01-02 11:43:00,
2013-01-02 04:52:00,8.0,1.0,30.27,NNW,339,4.0,7.0,72,0.00,,,0.00,0.000000,,2013-01-02 11:52:00,
2013-01-02 05:02:00,8.0,1.0,30.27,NNW,339,4.0,7.0,72,0.00,,,0.00,0.000000,,2013-01-02 12:02:00,
2013-01-02 05:12:00,8.0,1.0,30.26,North,352,4.0,7.0,73,0.00,,,0.00,0.000000,,2013-01-02 12:12:00,
2013-01-02 05:33:00,8.0,1.0,30.26,North,352,4.0,7.0,73,0.00,,,0.00,0.000000,,2013-01-02 12:33:00,
2013-01-02 05:43:00,8.0,1.0,30.26,North,352,4.0,7.0,73,0.00,,,0.00,0.000000,,2013-01-02 12:43:00,
2013-01-02 05:53:00,8.0,1.0,30.26,North,352,4.0,7.0,73,0.00,,,0.00,0.000000,,2013-01-02 12:53:00,
2013-01-02 06:02:00,8.0,1.0,30.26,North,352,4.0,7.0,73,0.00,,,0.00,0.000000,,2013-01-02 13:02:00,
2013-01-02 06:12:00,8.0,1.0,30.26,NNW,334,4.0,7.0,73,0.00,,,0.00,0.000000,,2013-01-02 13:12:00,
2013-01-02 06:33:00,8.0,1.0,30.26,NNW,334,4.0,7.0,73,0.00,,,0.00,0.000000,,2013-01-02 13:33:00,
2013-01-02 06:43:00,8.0,1.0,30.26,NNW,334,4.0,7.0,73,0.00,,,0.00,0.000000,,2013-01-02 13:43:00,
2013-01-02 06:52:00,8.0,1.0,30.26,NNW,334,4.0,7.0,73,0.00,,,0.00,0.000000,,2013-01-02 13:52:00,
2013-01-02 07:02:00,8.0,1.0,30.26,NNW,334,4.0,7.0,73,0.00,,,0.00,0.000000,,2013-01-02 14:02:00,
2013-01-02 07:12:00,8.0,1.0,30.27,SW,232,0.0,7.0,73,0.00,,,0.00,0.000000,,2013-01-02 14:12:00,
2013-01-02 07:43:00,8.0,1.0,30.27,SW,232,0.0,7.0,73,0.00,,,0.00,0.000000,,2013-01-02 14:43:00,
2013-01-02 07:53:00,8.0,1.0,30.27,SW,232,0.0,7.0,73,0.00,,,0.00,0.000000,,2013-01-02 14:53:00,
2013-01-02 08:02:00,8.0,1.0,30.27,SW,232,0.0,7.0,73,0.00,,,0.00,0.000000,,2013-01-02 15:02:00,
2013-01-02 08:12:00,7.0,0.0,30.29,North,6,0.0,5.0,72,0.00,,,0.00,6.000000,,2013-01-02 15:12:00,
2013-01-02 08:33:00,7.0,0.0,30.29,North,6,0.0,5.0,72,0.00,,,0.00,6.000000,,2013-01-02 15:33:00,
2013-01-02 08:43:00,7.0,0.0,30.29,North,6,0.0,5.0,72,0.00,,,0.00,6.000000,,2013-01-02 15:43:00,
2013-01-02 08:53:00,7.0,0.0,30.29,North,6,0.0,5.0,72,0.00,,,0.00,6.000000,,2013-01-02 15:53:00,
2013-01-02 09:03:00,7.0,0.0,30.29,North,6,0.0,5.0,72,0.00,,,0.00,6.000000,,2013-01-02 16:03:00,
2013-01-02 09:12:00,16.0,9.0,30.30,WNW,285,0.0,0.0,72,0.00,,,0.00,141.000000,,2013-01-02 16:12:00,
2013-01-02 09:33:00,16.0,9.0,30.30,WNW,285,0.0,0.0,72,0.00,,,0.00,141.000000,,2013-01-02 16:33:00,
2013-01-02 09:43:00,16.0,9.0,30.30,WNW,285,0.0,0.0,72,0.00,,,0.00,141.000000,,2013-01-02 16:43:00,
2013-01-02 09:53:00,16.0,9.0,30.30,WNW,285,0.0,0.0,72,0.00,,,0.00,141.000000,,2013-01-02 16:53:00,
2013-01-02 10:03:00,16.0,9.0,30.30,WNW,285,0.0,0.0,72,0.00,,,0.00,141.000000,,2013-01-02 17:03:00,
2013-01-02 10:43:00,24.0,6.0,30.29,NNW,329,0.0,0.0,45,0.00,,,0.00,293.000000,,2013-01-02 17:43:00,
2013-01-02 10:53:00,24.0,6.0,30.29,NNW,329,0.0,0.0,45,0.00,,,0.00,293.000000,,2013-01-02 17:53:00,
2013-01-02 11:12:00,26.0,6.0,30.28,NNW,339,0.0,4.0,41,-99.99,,,0.00,400.000000,,2013-01-02 18:12:00,
2013-01-02 11:33:00,26.0,6.0,30.28,NNW,339,0.0,4.0,41,-99.99,,,0.00,400.000000,,2013-01-02 18:33:00,
2013-01-02 12:12:00,23.0,5.0,30.25,NW,326,5.0,8.0,46,-99.99,,,0.00,490.000000,,2013-01-02 19:12:00,
2013-01-02 12:33:00,23.0,5.0,30.25,NW,326,5.0,8.0,46,-99.99,,,0.00,490.000000,,2013-01-02 19:33:00,
2013-01-02 13:12:00,22.0,6.0,30.25,WNW,300,4.0,11.0,50,0.00,,,0.00,517.000000,,2013-01-02 20:12:00,
2013-01-02 13:33:00,22.0,6.0,30.25,WNW,300,4.0,11.0,50,0.00,,,0.00,517.000000,,2013-01-02 20:33:00,
2013-01-02 13:42:00,22.0,6.0,30.25,WNW,300,4.0,11.0,50,0.00,,,0.00,517.000000,,2013-01-02 20:42:00,
2013-01-02 13:53:00,22.0,6.0,30.25,WNW,300,4.0,11.0,50,0.00,,,0.00,517.000000,,2013-01-02 20:53:00,
2013-01-02 14:02:00,22.0,6.0,30.25,WNW,300,4.0,11.0,50,0.00,,,0.00,517.000000,,2013-01-02 21:02:00,
2013-01-02 14:12:00,20.0,4.0,30.23,WNW,298,6.0,10.0,49,0.00,,,0.00,575.000000,,2013-01-02 21:12:00,
2013-01-02 14:43:00,20.0,4.0,30.23,WNW,298,6.0,10.0,49,0.00,,,0.00,575.000000,,2013-01-02 21:43:00,
2013-01-02 14:53:00,20.0,4.0,30.23,WNW,298,6.0,10.0,49,0.00,,,0.00,575.000000,,2013-01-02 21:53:00,
2013-01-02 15:02:00,20.0,4.0,30.23,WNW,298,6.0,10.0,49,0.00,,,0.00,575.000000,,2013-01-02 22:02:00,
2013-01-02 15:12:00,21.0,4.0,30.26,WNW,284,6.0,11.0,48,0.00,,,0.00,614.000000,,2013-01-02 22:12:00,
2013-01-02 15:43:00,21.0,4.0,30.26,WNW,284,6.0,11.0,48,0.00,,,0.00,614.000000,,2013-01-02 22:43:00,
2013-01-02 15:53:00,21.0,4.0,30.26,WNW,284,6.0,11.0,48,0.00,,,0.00,614.000000,,2013-01-02 22:53:00,
2013-01-02 16:02:00,21.0,4.0,30.26,WNW,284,6.0,11.0,48,0.00,,,0.00,614.000000,,2013-01-02 23:02:00,
2013-01-02 16:12:00,19.0,3.0,30.26,WNW,283,5.0,11.0,48,0.00,,,0.00,369.000000,,2013-01-02 23:12:00,
2013-01-02 16:33:00,19.0,3.0,30.26,WNW,283,5.0,11.0,48,0.00,,,0.00,369.000000,,2013-01-02 23:33:00,
2013-01-02 16:43:00,19.0,3.0,30.26,WNW,283,5.0,11.0,48,0.00,,,0.00,369.000000,,2013-01-02 23:43:00,
2013-01-02 16:53:00,19.0,3.0,30.26,WNW,283,5.0,11.0,48,0.00,,,0.00,369.000000,,2013-01-02 23:53:00,
2013-01-02 17:02:00,19.0,3.0,30.26,WNW,283,5.0,11.0,48,0.00,,,0.00,369.000000,,2013-01-03 00:02:00,
2013-01-02 17:38:00,12.0,-2.0,30.27,WNW,301,3.0,7.0,52,0.00,,,0.00,128.000000,,2013-01-03 00:38:00,
2013-01-02 17:52:00,12.0,-2.0,30.27,WNW,301,3.0,7.0,52,0.00,,,0.00,128.000000,,2013-01-03 00:52:00,
2013-01-02 18:02:00,12.0,-2.0,30.27,WNW,301,3.0,7.0,52,0.00,,,0.00,128.000000,,2013-01-03 01:02:00,
2013-01-02 18:11:00,12.0,-2.0,30.27,WNW,301,3.0,7.0,52,0.00,,,0.00,128.000000,,2013-01-03 01:11:00,
2013-01-02 18:12:00,9.0,0.0,30.29,West,260,0.0,5.0,67,0.00,,,0.00,0.000000,,2013-01-03 01:12:00,
2013-01-02 18:33:00,9.0,0.0,30.29,West,260,0.0,5.0,67,0.00,,,0.00,0.000000,,2013-01-03 01:33:00,
2013-01-02 18:43:00,9.0,0.0,30.29,West,260,0.0,5.0,67,0.00,,,0.00,0.000000,,2013-01-03 01:43:00,
2013-01-02 18:52:00,9.0,0.0,30.29,West,260,0.0,5.0,67,0.00,,,0.00,0.000000,,2013-01-03 01:52:00,
2013-01-02 19:02:00,9.0,0.0,30.29,West,260,0.0,5.0,67,0.00,,,0.00,0.000000,,2013-01-03 02:02:00,
2013-01-02 19:12:00,7.0,-1.0,30.29,NNW,331,0.0,4.0,68,0.00,,,0.00,0.000000,,2013-01-03 02:12:00,
2013-01-02 19:33:00,7.0,-1.0,30.29,NNW,331,0.0,4.0,68,0.00,,,0.00,0.000000,,2013-01-03 02:33:00,
2013-01-02 19:43:00,7.0,-1.0,30.29,NNW,331,0.0,4.0,68,0.00,,,0.00,0.000000,,2013-01-03 02:43:00,
2013-01-02 19:52:00,7.0,-1.0,30.29,NNW,331,0.0,4.0,68,0.00,,,0.00,0.000000,,2013-01-03 02:52:00,
2013-01-02 20:02:00,7.0,-1.0,30.29,NNW,331,0.0,4.0,68,0.00,,,0.00,0.000000,,2013-01-03 03:02:00,
2013-01-02 20:47:00,10.0,-15.0,30.30,North,3,11.0,17.0,31,0.00,,,0.00,0.000000,,2013-01-03 03:47:00,
2013-01-02 21:32:00,9.0,-14.0,30.31,East,98,7.0,11.0,33,0.00,,,0.00,0.000000,,2013-01-03 04:32:00,
2013-01-02 22:33:00,9.0,-15.0,30.33,ENE,72,5.0,13.0,31,0.00,,,0.00,0.000000,,2013-01-03 05:33:00,
2013-01-02 23:33:00,8.0,-16.0,30.35,ENE,69,0.0,8.0,31,0.00,,,0.00,0.000000,,2013-01-03 06:33:00,